When you browse on this site, cookies collect data to enhance your experience and personalize the content and advertising you see.
Visit our Privacy Policy to learn more. By continuing to use the site, you agree to this use of cookies and data.
  • In Czech Republic
  • List of Countries
  • For 7 days
  • Water Temperature
  • Weather Map
  • Weather Widgets
  • user-avatar
    Login

    Hourly Weather Oran

    Today, 26 May, Tuesday

    Time Temperature Precipitation Wind Pressure Humidity
    00:00 +21°C° 0 mm 3 mps 756 mmHg 71%
    01:00 +21°C° 0 mm 4 mps 755 mmHg 73%
    02:00 +20°C° 0 mm 4 mps 755 mmHg 76%
    03:00 +20°C° 0 mm 4 mps 755 mmHg 79%
    04:00 +20°C° 0 mm 4 mps 755 mmHg 79%
    05:00 +20°C° 0 mm 4 mps 755 mmHg 78%
    06:00 +20°C° 0 mm 3 mps 756 mmHg 77%
    07:00 +22°C° 0 mm 4 mps 756 mmHg 71%
    08:00 +23°C° 0 mm 5 mps 756 mmHg 65%
    09:00 +25°C° 0 mm 5 mps 756 mmHg 59%
    10:00 +27°C° 0 mm 6 mps 755 mmHg 55%
    11:00 +28°C° 0 mm 6 mps 755 mmHg 51%
    12:00 +29°C° 0 mm 7 mps 755 mmHg 47%
    13:00 +29°C° 0.1 mm 7 mps 755 mmHg 47%
    14:00 +29°C° 0.1 mm 8 mps 754 mmHg 48%
    15:00 +29°C° 0.1 mm 8 mps 754 mmHg 49%
    16:00 +28°C° 0.3 mm 8 mps 754 mmHg 52%
    17:00 +27°C° 0.3 mm 8 mps 754 mmHg 55%
    18:00 +26°C° 0.3 mm 8 mps 754 mmHg 58%
    19:00 +24°C° 0 mm 7 mps 754 mmHg 62%
    20:00 +23°C° 0 mm 6 mps 754 mmHg 65%
    21:00 +22°C° 0 mm 5 mps 755 mmHg 69%
    22:00 +22°C° 0.1 mm 5 mps 754 mmHg 72%
    23:00 +22°C° 0.1 mm 4 mps 754 mmHg 75%

    Tomorrow, 27 May, Wednesday

    Time Temperature Precipitation Wind Pressure Humidity
    00:00 +21°C° 0.1 mm 4 mps 754 mmHg 78%
    01:00 +21°C° 0 mm 4 mps 754 mmHg 80%
    02:00 +21°C° 0 mm 4 mps 754 mmHg 82%
    03:00 +21°C° 0 mm 3 mps 754 mmHg 83%
    04:00 +21°C° 0.1 mm 4 mps 754 mmHg 83%
    05:00 +21°C° 0.1 mm 4 mps 754 mmHg 82%
    06:00 +21°C° 0.1 mm 4 mps 754 mmHg 82%
    07:00 +22°C° 0 mm 4 mps 754 mmHg 76%
    08:00 +23°C° 0 mm 5 mps 754 mmHg 69%
    09:00 +26°C° 0 mm 5 mps 755 mmHg 63%
    10:00 +27°C° 0 mm 6 mps 754 mmHg 59%
    11:00 +28°C° 0 mm 7 mps 754 mmHg 56%
    12:00 +29°C° 0 mm 8 mps 754 mmHg 52%
    13:00 +29°C° 0.2 mm 9 mps 754 mmHg 51%
    14:00 +29°C° 0.2 mm 9 mps 753 mmHg 49%
    15:00 +29°C° 0.2 mm 9 mps 753 mmHg 47%
    16:00 +28°C° 0.1 mm 8 mps 753 mmHg 50%
    17:00 +27°C° 0.1 mm 8 mps 754 mmHg 52%
    18:00 +27°C° 0.1 mm 7 mps 754 mmHg 54%
    19:00 +24°C° 0 mm 6 mps 754 mmHg 59%
    20:00 +23°C° 0 mm 6 mps 755 mmHg 63%
    21:00 +22°C° 0 mm 5 mps 755 mmHg 67%
    22:00 +22°C° 0 mm 5 mps 755 mmHg 69%
    23:00 +22°C° 0 mm 5 mps 755 mmHg 72%

    Day after tomorrow, 28 May, Thursday

    Time Temperature Precipitation Wind Pressure Humidity
    00:00 +22°C° 0 mm 5 mps 754 mmHg 74%
    01:00 +21°C° 0 mm 5 mps 754 mmHg 77%
    02:00 +21°C° 0 mm 5 mps 754 mmHg 79%
    03:00 +21°C° 0 mm 5 mps 754 mmHg 82%
    04:00 +21°C° 0 mm 5 mps 754 mmHg 82%
    05:00 +21°C° 0 mm 5 mps 753 mmHg 82%
    06:00 +21°C° 0 mm 5 mps 753 mmHg 83%
    07:00 +22°C° 0.2 mm 5 mps 754 mmHg 76%
    08:00 +23°C° 0.2 mm 5 mps 754 mmHg 70%
    09:00 +26°C° 0.2 mm 5 mps 754 mmHg 64%
    10:00 +27°C° 0.2 mm 6 mps 754 mmHg 61%
    11:00 +28°C° 0.2 mm 6 mps 753 mmHg 57%
    12:00 +29°C° 0.2 mm 7 mps 753 mmHg 54%
    13:00 +28°C° 0.5 mm 7 mps 752 mmHg 55%
    14:00 +28°C° 0.5 mm 7 mps 752 mmHg 57%
    15:00 +28°C° 0.5 mm 8 mps 751 mmHg 58%
    16:00 +27°C° 0.5 mm 7 mps 752 mmHg 60%
    17:00 +26°C° 0.5 mm 6 mps 752 mmHg 62%
    18:00 +26°C° 0.5 mm 5 mps 752 mmHg 64%
    19:00 +25°C° 0.4 mm 4 mps 753 mmHg 68%
    20:00 +23°C° 0.4 mm 4 mps 753 mmHg 72%
    21:00 +22°C° 0.4 mm 4 mps 754 mmHg 77%
    22:00 +22°C° 0.4 mm 4 mps 754 mmHg 80%
    23:00 +21°C° 0.4 mm 4 mps 753 mmHg 83%

    29 May, Friday

    Time Temperature Precipitation Wind Pressure Humidity
    00:00 +21°C° 0.4 mm 3 mps 753 mmHg 85%
    01:00 +21°C° 0.1 mm 3 mps 753 mmHg 87%
    02:00 +20°C° 0.1 mm 3 mps 752 mmHg 88%
    03:00 +20°C° 0.1 mm 3 mps 752 mmHg 89%
    04:00 +20°C° 0 mm 4 mps 752 mmHg 88%
    05:00 +20°C° 0 mm 4 mps 752 mmHg 88%
    06:00 +20°C° 0 mm 4 mps 752 mmHg 87%
    07:00 +22°C° 0 mm 4 mps 752 mmHg 82%
    08:00 +23°C° 0 mm 5 mps 752 mmHg 76%
    09:00 +25°C° 0 mm 5 mps 752 mmHg 71%
    10:00 +26°C° 0 mm 5 mps 752 mmHg 67%
    11:00 +27°C° 0 mm 6 mps 751 mmHg 64%
    12:00 +28°C° 0 mm 6 mps 751 mmHg 60%
    13:00 +28°C° 0 mm 7 mps 751 mmHg 61%
    14:00 +28°C° 0 mm 7 mps 750 mmHg 61%
    15:00 +27°C° 0 mm 7 mps 750 mmHg 62%
    16:00 +26°C° 0 mm 6 mps 750 mmHg 65%
    17:00 +24°C° 0 mm 6 mps 749 mmHg 67%
    18:00 +23°C° 0 mm 6 mps 749 mmHg 70%
    19:00 +23°C° 0 mm 5 mps 750 mmHg 73%
    20:00 +22°C° 0 mm 4 mps 750 mmHg 76%
    21:00 +21°C° 0 mm 3 mps 751 mmHg 79%
    22:00 +21°C° 0 mm 3 mps 751 mmHg 80%
    23:00 +21°C° 0 mm 3 mps 750 mmHg 81%

    30 May, Saturday

    Time Temperature Precipitation Wind Pressure Humidity
    00:00 +21°C° 0 mm 3 mps 750 mmHg 82%
    01:00 +20°C° 0 mm 3 mps 750 mmHg 84%
    02:00 +20°C° 0 mm 3 mps 750 mmHg 85%
    03:00 +20°C° 0 mm 3 mps 749 mmHg 87%
    04:00 +20°C° 0 mm 3 mps 750 mmHg 85%
    05:00 +20°C° 0 mm 3 mps 750 mmHg 84%
    06:00 +21°C° 0 mm 3 mps 750 mmHg 82%
    07:00 +21°C° 0 mm 3 mps 750 mmHg 78%
    08:00 +22°C° 0 mm 4 mps 750 mmHg 74%
    09:00 +23°C° 0 mm 4 mps 751 mmHg 70%
    10:00 +25°C° 0 mm 4 mps 750 mmHg 65%
    11:00 +26°C° 0 mm 5 mps 750 mmHg 61%
    12:00 +28°C° 0 mm 5 mps 750 mmHg 56%
    13:00 +28°C° 0 mm 6 mps 750 mmHg 56%
    14:00 +28°C° 0 mm 7 mps 750 mmHg 56%
    15:00 +28°C° 0 mm 7 mps 749 mmHg 56%
    16:00 +27°C° 0 mm 7 mps 749 mmHg 59%
    17:00 +26°C° 0 mm 7 mps 749 mmHg 62%
    18:00 +24°C° 0 mm 7 mps 749 mmHg 65%
    19:00 +23°C° 0 mm 6 mps 749 mmHg 68%
    20:00 +23°C° 0 mm 5 mps 749 mmHg 71%
    21:00 +22°C° 0 mm 5 mps 750 mmHg 74%
    22:00 +22°C° 0 mm 4 mps 750 mmHg 76%
    23:00 +21°C° 0 mm 4 mps 750 mmHg 78%

    31 May, Sunday

    Time Temperature Precipitation Wind Pressure Humidity
    00:00 +21°C° 0 mm 3 mps 750 mmHg 81%
    01:00 +21°C° 0 mm 3 mps 750 mmHg 82%
    02:00 +20°C° 0 mm 3 mps 749 mmHg 83%
    03:00 +20°C° 0 mm 2 mps 749 mmHg 84%
    04:00 +21°C° 0 mm 2 mps 749 mmHg 82%
    05:00 +21°C° 0 mm 2 mps 749 mmHg 80%
    06:00 +21°C° 0 mm 2 mps 750 mmHg 77%
    07:00 +24°C° 0 mm 2 mps 749 mmHg 71%
    08:00 +25°C° 0 mm 3 mps 749 mmHg 65%
    09:00 +26°C° 0 mm 3 mps 749 mmHg 59%
    10:00 +28°C° 0 mm 4 mps 749 mmHg 54%
    11:00 +29°C° 0 mm 4 mps 749 mmHg 50%
    12:00 +32°C° 0 mm 5 mps 749 mmHg 45%
    13:00 +30°C° 0 mm 5 mps 749 mmHg 45%
    14:00 +30°C° 0 mm 6 mps 748 mmHg 44%
    15:00 +29°C° 0 mm 6 mps 748 mmHg 44%
    16:00 +29°C° 0 mm 5 mps 748 mmHg 45%
    17:00 +28°C° 0 mm 4 mps 749 mmHg 47%
    18:00 +27°C° 0 mm 3 mps 749 mmHg 49%
    19:00 +26°C° 0 mm 2 mps 749 mmHg 53%
    20:00 +25°C° 0 mm 2 mps 750 mmHg 58%
    21:00 +24°C° 0 mm 2 mps 750 mmHg 62%
    22:00 +24°C° 0 mm 1 mps 750 mmHg 64%
    23:00 +23°C° 0 mm 1 mps 750 mmHg 65%
    Show more